Regional Weather Roundup
Issued by NWS Kansas City/Pleasant Hill, MO

Home | Current Version | Previous Version | Text Only | Print | Product List | Glossary On
Versions: 1 2 3 4 5 6 7 8 9 10 11 12 13 14 15 16 17 18 19 20 21 22 23 24 25 26 27 28 29 30 31 32 33 34 35 36 37 38 39 40 41 42 43 44 45 46 47 48 49 50
000
ASUS43 KEAX 270310
RWREAX

WEATHER ROUNDUP FOR EASTERN KANSAS AND NORTHWEST MISSOURI
NATIONAL WEATHER SERVICE KANSAS CITY/PLEASANT HILL MO
1000 PM CDT WED AUG 26 2015

KSZ040-057-103>105-MOZ028-029-037-043-270400-
...KANSAS CITY METROPOLITAN AREA...

CITY           SKY/WX    TMP DP  RH WIND       PRES   REMARKS
K.C. INTL      PTCLDY    72  61  68 SE10      30.13R
K.C. DOWNTOWN  CLEAR     73  62  68 E6        30.12R
LEES SUMMIT    CLEAR     68  61  78 E6        30.14R
OLATHE - IXD   CLEAR     70  62  76 E6        30.14R
OLATHE - OJC   CLEAR     70  61  73 SE5       30.13R
LAWRENCE       CLEAR     66  62  87 E5        30.12R

$$

MOZ001>008-011>017-020>025-030>033-038>040-044>046-053-054-270400-
...NORTHERN AND CENTRAL MISSOURI...

CITY           SKY/WX    TMP DP  RH WIND       PRES   REMARKS
ST. JOSEPH     CLEAR     68  61  78 SE5       30.12R
MOSBY          CLEAR     68  61  77 CALM      30.12S
WARRENSBURG    CLEAR     66  59  77 E5        30.14R
WHITEMAN AFB   PTCLDY    66  58  77 SE3       30.13R
CLINTON        CLEAR     70  64  83 CALM      30.14R
SEDALIA        CLEAR     64  56  75 E3        30.16R
WARSAW         NOT AVBL
CHILLICOTHE      N/A     62  58  86 CALM      30.16R
KIRKSVILLE     PTCLDY    61  57  87 CALM      30.17R

$$

MOZ041-047>049-056>058-063>065-088>090-097-270400-
...EASTERN AND SOUTHERN MISSOURI...

CITY           SKY/WX    TMP DP  RH WIND       PRES   REMARKS
ST. LOUIS INTL CLEAR     70  55  59 NE3       30.14R
SPIRIT OF STL  CLEAR     62  60  93 CALM      30.13R
COLUMBIA       CLEAR     65  59  81 N3        30.16R
JEFFERSON CITY CLEAR     63  59  87 NW3       30.14R
ROLLA          CLEAR     59  54  83 CALM      30.14R
OSAGE BEACH    CLEAR     61  54  77 CALM      30.15R
SPRINGFIELD    CLEAR     70  61  73 CALM      30.13R
BRANSON        MOCLDY    66  63  88 CALM      30.14S
JOPLIN         CLEAR     69  62  78 CALM      30.12R
WEST PLAINS    CLEAR     61  56  83 CALM      30.15R

$$

IAZ060-094-KSZ022-034>040-054-083-096-NEZ052-066-093-270400-
...KANSAS...SOUTHEAST NEBRASKA AND IOWA...

CITY           SKY/WX    TMP DP  RH WIND       PRES   REMARKS
TOPEKA         CLEAR     69  64  84 E6        30.10R
MANHATTAN      CLEAR     75  63  66 E3        30.07R
EMPORIA        CLEAR     71  64  78 E8        30.09R
CHANUTE        CLEAR     71  64  78 SE6       30.10R
WICHITA        PTCLDY    79  72  79 SE12      30.05R
OMAHA          CLEAR     70  62  76 SE9       30.09R
LINCOLN        CLEAR     73  63  70 SE9       30.08R
FALLS CITY     CLEAR     67  63  87 SE8       30.09R
LAMONI         CLEAR     68  56  65 SE3       30.15R
DES MOINES     PTCLDY    69  51  52 SE7       30.14R

$$



USA.gov is the U.S. government's official web portal to all federal, state and local government web resources and services.